Bartlesville, OK

8:01 PM CDT on May 23, 2017 (GMT -0500)
Bartlesville Municipal

Weather History for KBVO - March, 2012

Change the Weather History Date:

Saturday, March 17, 2012

  Actual Average Record
Temperature  
Mean Temperature 68 °F -  
Max Temperature 77 °F 64 °F 87 °F (2011)
Min Temperature 60 °F 38 °F 18 °F (1970)
Cooling Degree Days 4    
Growing Degree Days 18 (Base 50)    
Moisture  
Dew Point 61 °F    
Average Humidity 76    
Maximum Humidity 100    
Minimum Humidity 59    
Precipitation  
Precipitation 0.00 in - - ()
Sea Level Pressure  
Sea Level Pressure 29.90 in    
Wind  
Wind Speed 10 mph (South)    
Max Wind Speed 18 mph    
Max Gust Speed 31 mph    
Visibility 10 miles    
Events      
Averages and records for this station are not official NWS values.
T = Trace of Precipitation, MM = Missing Value Source: NWS Daily Summary

Daily Weather History Graph

Daily Weather History Graph

Search for Another Location

Airport or City:

Trip Planner

Search our weather history database for the weather conditions in past years. The results will help you decide how hot, cold, wet, or windy it might be!

Date:

Astronomy

Mar. 17, 2012 Rise Set
Actual Time 7:31 AM CDT 7:33 PM CDT
Civil Twilight 7:05 AM CDT 7:59 PM CDT
Nautical Twilight 6:35 AM CDT 8:29 PM CDT
Astronomical Twilight 6:05 AM CDT 9:00 PM CDT
Moon 4:26 AM CDT (3/17) 3:05 PM CDT (3/17)
Length of Visible Light 12h 54m
Length of Day
12h 02m
Waning Crescent, 23% of the Moon is Illuminated
Mar 17
Waning Crescent
Mar 22
New
Mar 30
First Quarter
Apr 6
Full
Apr 13
Last Quarter

Hourly Weather History & Observations

Time (CDT) Temp. Dew Point Humidity Pressure Visibility Wind Dir Wind Speed Gust Speed Precip Events Conditions
12:53 AM 70.0 °F 61.0 °F 73% 29.91 in 10.0 mi South 11.5 mph 18.4 mph N/A   Clear
1:53 AM 69.1 °F 61.0 °F 75% 29.89 in 10.0 mi South 9.2 mph - N/A   Clear
2:53 AM 68.0 °F 61.0 °F 78% 29.89 in 10.0 mi South 10.4 mph - N/A   Clear
3:53 AM 66.9 °F 62.1 °F 84% 29.89 in 10.0 mi South 8.1 mph - N/A   Partly Cloudy
4:06 AM 66.2 °F 62.6 °F 88% 29.90 in 10.0 mi SSE 10.4 mph 16.1 mph N/A   Mostly Cloudy
4:30 AM 66.2 °F 62.6 °F 88% 29.89 in 10.0 mi SSE 10.4 mph - N/A   Scattered Clouds
4:53 AM 66.0 °F 62.1 °F 87% 29.87 in 10.0 mi South 6.9 mph - N/A   Partly Cloudy
5:53 AM 64.9 °F 61.0 °F 87% 29.89 in 10.0 mi South 4.6 mph - N/A   Clear
6:32 AM 64.4 °F 62.6 °F 94% 29.93 in 10.0 mi SSE 4.6 mph - N/A   Overcast
6:53 AM 63.0 °F 60.1 °F 90% 29.91 in 10.0 mi SSE 3.5 mph - N/A   Partly Cloudy
7:29 AM 62.6 °F 60.8 °F 94% 29.94 in 9.0 mi Calm Calm - N/A   Mostly Cloudy
7:46 AM 60.8 °F 60.8 °F 100% 29.94 in 7.0 mi Calm Calm - N/A   Scattered Clouds
7:53 AM 61.0 °F 60.1 °F 97% 29.91 in 7.0 mi Calm Calm - N/A   Partly Cloudy
8:17 AM 64.4 °F 62.6 °F 94% 29.95 in 9.0 mi South 4.6 mph - N/A   Mostly Cloudy
8:53 AM 69.1 °F 63.0 °F 81% 29.93 in 10.0 mi South 11.5 mph 17.3 mph N/A   Overcast
9:53 AM 72.0 °F 63.0 °F 73% 29.92 in 10.0 mi South 15.0 mph 21.9 mph N/A   Mostly Cloudy
10:53 AM 73.9 °F 63.0 °F 68% 29.93 in 10.0 mi SSW 15.0 mph 24.2 mph N/A   Overcast
11:53 AM 73.9 °F 63.0 °F 68% 29.92 in 10.0 mi South 11.5 mph 24.2 mph N/A   Overcast
12:05 PM 73.4 °F 62.6 °F 69% 29.95 in 10.0 mi South 16.1 mph 25.3 mph N/A   Overcast
12:53 PM 73.9 °F 63.0 °F 68% 29.92 in 10.0 mi South 16.1 mph 24.2 mph N/A   Overcast
1:53 PM 73.9 °F 62.1 °F 66% 29.90 in 10.0 mi South 16.1 mph 25.3 mph N/A   Overcast
2:02 PM 77.0 °F 62.6 °F 61% 29.92 in 10.0 mi South 16.1 mph 25.3 mph N/A   Overcast
2:53 PM 75.9 °F 61.0 °F 60% 29.87 in 10.0 mi South 16.1 mph 23.0 mph N/A   Overcast
3:53 PM 75.0 °F 60.1 °F 60% 29.86 in 10.0 mi South 18.4 mph 26.5 mph N/A   Overcast
4:53 PM 73.9 °F 60.1 °F 62% 29.86 in 10.0 mi South 16.1 mph 31.1 mph N/A   Overcast
5:53 PM 73.9 °F 59.0 °F 59% 29.86 in 10.0 mi South 18.4 mph 24.2 mph N/A   Overcast
6:53 PM 73.0 °F 59.0 °F 61% 29.86 in 10.0 mi South 12.7 mph 25.3 mph N/A   Overcast
7:53 PM 73.0 °F 59.0 °F 61% 29.86 in 10.0 mi South 17.3 mph 25.3 mph N/A   Overcast
8:53 PM 72.0 °F 59.0 °F 64% 29.88 in 10.0 mi South 13.8 mph 26.5 mph N/A   Mostly Cloudy
9:53 PM 70.0 °F 60.1 °F 71% 29.88 in 10.0 mi South 6.9 mph - N/A   Overcast
10:53 PM 66.9 °F 60.1 °F 79% 29.88 in 10.0 mi South 8.1 mph - N/A   Scattered Clouds
11:53 PM 68.0 °F 59.0 °F 73% 29.89 in 10.0 mi South 8.1 mph - N/A   Clear